CAPE
578 1567 1289 1175 913 10 5 18 4 0 25 442 449 473 486 469 497 400 231 577 576 827 833 830 1392 1017 1324 1842 1745 2353 2652 2672 2676 2674 2769 2542 2564 2373 1768 1812 1790 2334 1919 1960 1552 1105 650 1081 1202
1090 1329 1004 974 107 8 13 6 102 25 0 23 99 195 249 343 144 252 517 517 532 796 751 1119 1181 1311 1184 1798 2145 2456 2824 2686 2764 2667 2781 2851 2836 2597 1907 1789 1712 1928 1719 1391 910 743 1032 1497 1496
1356 1025 1156 326 29 14 8 112 259 98 23 6 198 431 385 190 205 370 607 672 732 731 614 1269 1212 1635 698 1373 2316 2778 2845 2473 2251 3040 2911 2755 2600 2332 1558 1826 1662 1629 1281 836 800 1065 891 1030 1251
1518 1306 788 100 30 176 129 169 88 83 12 136 251 427 457 443 400 633 682 692 713 772 674 1201 1013 755 754 1905 2626 2709 2884 2574 2631 2915 2857 2476 1979 1536 1253 1282 1508 1542 1285 934 1087 1320 1395 1247 1379
694 507 172 77 56 188 250 218 257 36 102 125 252 491 644 709 720 700 635 668 864 663 500 741 1249 1055 1245 1853 2707 2719 2990 2863 2426 2983 2470 2339 2091 1948 1724 1229 883 1249 1489 1363 976 1165 1197 1020 857
1083 904 108 93 83 264 251 262 131 17 60 329 500 553 728 595 720 750 616 532 768 893 542 474 591 829 824 1574 2021 2712 2763 2076 2386 2232 1985 2139 2033 1845 1767 1678 1419 903 1168 1430 1394 1281 1070 1047 919
532 475 497 229 146 158 339 286 274 226 5 54 218 647 557 592 735 806 696 742 601 919 951 1079 573 670 634 662 1595 1975 2332 2347 2695 2238 1916 1705 1769 1626 1758 1921 1666 1658 924 1139 1287 1190 1020 1081 814
436 461 51 64 104 180 447 406 479 397 240 348 296 392 663 760 785 823 578 702 942 194 610 937 881 887 841 1035 1058 1974 2516 2551 1545 1520 1494 1484 1904 1896 1455 1910 1787 1697 1669 1116 927 1103 1237 1101 773
512 31 3 14 36 114 463 475 542 539 672 700 271 368 594 535 646 807 710 845 1037 773 272 721 565 504 1366 1697 1751 2532 2118 2054 1592 1385 1342 1322 561 843 1303 1247 1306 1535 1478 1285 1197 988 842 773 715
7 0 0 0 0 27 225 358 578 662 850 566 605 601 500 440 600 701 839 923 1042 758 591 74 195 584 335 1135 2288 2463 1284 312 1107 829 766 582 925 1378 1365 1187 1518 1489 1353 1441 1654 1377 1155 449 327
0 0 0 0 0 1 245 466 489 476 527 595 594 589 441 410 563 620 952 873 918 820 499 740 731 286 346 339 1900 2077 2276 2115 1350 1490 1150 1156 1128 1297 974 949 814 920 1543 1135 1072 1777 717 109 162
0 0 0 0 0 9 217 508 543 740 747 723 465 497 462 291 434 444 706 1092 1161 1059 925 808 1050 966 1052 1123 1220 2013 2172 1338 1002 1211 1932 1792 1189 1220 1280 1234 1162 1315 937 1551 1485 640 739 441 170
0 0 0 0 0 2 261 441 649 971 918 575 441 473 475 298 260 231 412 705 1057 1279 1282 1338 1459 1594 1663 1829 1488 1675 1444 1645 1555 1993 1945 1721 1382 1606 1429 1278 1197 1686 1640 1457 1530 1133 970 852 386
0 0 0 0 0 10 74 465 691 1034 1032 612 434 468 431 368 286 329 278 407 777 1054 1359 1597 1951 2039 1949 2031 2112 2180 2184 2030 1994 1691 1712 2075 1865 1784 1476 1458 1267 1741 2488 2105 1994 1507 1269 1075 486
0 0 0 0 0 0 52 302 496 1243 1167 660 412 479 471 470 498 535 461 538 648 1134 1332 1484 1837 2094 2293 2394 2416 2272 1649 1493 1439 1425 1827 2254 2606 2222 2195 1689 1552 1579 2204 2183 1832 1933 1537 1379 1123
0 0 0 0 0 0 7 55 848 1283 1142 788 487 491 612 650 630 694 766 787 817 870 1306 1708 1412 1679 2099 2120 2110 1825 1664 1802 1649 1562 1537 1789 2045 2048 1987 1712 1592 1561 1982 1948 2120 1918 1648 1527 1411
0 0 0 0 0 0 0 36 867 1059 1185 1064 944 841 781 964 1074 1210 1018 874 895 1104 1370 1675 1870 1751 2069 2305 2183 2138 2036 1986 1553 1423 1449 1581 2043 2134 2257 2085 2114 2504 2161 1993 1948 1879 1959 1808 1743
0 0 0 0 0 0 0 114 734 935 1264 1078 1207 1108 1039 1069 1218 1440 1533 1477 1423 1244 1468 1767 1813 1978 2197 2156 2348 1927 1769 1889 1852 1798 1629 1622 1916 2179 2501 2403 2635 3071 2572 2306 2097 2113 1896 1829 1526
0 0 0 0 0 0 0 21 528 926 1205 1173 1169 1352 1303 1202 1085 1223 1427 1541 1591 1769 1860 1764 1900 2132 2288 2103 1754 1555 1463 1745 1987 2103 2242 2367 2327 2327 2523 2484 2505 2644 2736 3031 2793 2865 2634 2165 1811
0 0 0 0 0 0 0 0 236 742 875 1124 1175 1219 1337 1390 1378 1275 1388 1420 1599 1760 1944 2136 2124 2227 2461 1795 1755 1487 1520 1647 2079 2430 2544 2671 2827 2868 2909 3098 2824 2618 2437 2505 3047 3139 2976 2237 3101
0 0 0 0 0 0 0 10 164 458 716 863 1062 1198 1180 1343 1446 1583 1602 1593 1571 1810 2204 2269 2601 2365 2450 2004 1931 2226 2296 2298 2260 2488 2614 2806 2985 2909 3274 3089 3807 3158 3379 2019 2723 3429 2742 2236 3380
0 0 0 0 0 0 0 31 1 51 427 708 877 1152 1236 1291 1326 1430 1547 1841 1833 1913 2090 2595 2928 2963 2732 2847 2581 2870 2689 2777 2329 2789 2631 2595 2871 2932 2866 2944 3219 3382 2742 2898 2431 2969 3633 3410 1955
0 0 0 0 0 0 0 0 46 30 54 150 419 816 1105 1298 1346 1399 1507 1533 1611 1807 2121 2539 3082 3473 3393 3365 3426 3117 3246 2799 2768 2959 3209 3516 3567 3361 3395 2897 2938 3747 3182 3133 2849 3049 2886 2375 2580
0 0 0 0 0 0 0 0 0 1 3 8 45 446 889 1156 1289 1322 1408 1587 1732 1635 1659 2079 2850 3522 3548 3530 3559 3680 3494 3463 3453 2961 3206 2621 2154 2189 2684 3240 3542 3709 3682 3309 3411 3737 3243 3014 2903
0 0 0 0 0 2 0 0 0 0 12 82 145 195 693 1030 1251 1376 1489 1633 1981 1959 1906 2019 2743 3419 3462 3358 3362 3591 3829 4050 4168 3939 2580 2702 1433 934 1775 2872 3295 2840 2665 2902 3405 3272 3256 3607 3230
0 0 0 0 0 5 0 0 0 26 124 322 436 347 611 875 1147 1343 1318 1722 2027 2145 2312 2290 2866 3519 3662 3483 3700 3954 4180 3914 3410 3099 3111 2972 2325 1363 2573 2255 2688 2272 2278 2362 2972 2685 3192 2999 3121
0 0 0 0 0 0 0 0 0 88 338 583 686 706 804 1149 1172 1478 1601 959 1612 2402 2743 2775 3133 3884 3777 3621 3892 4167 4349 4344 3409 3821 3568 1696 1557 968 894 1553 1867 2009 2057 2145 2383 1892 1895 2000 2684
0 0 0 0 0 0 0 0 0 0 78 839 1206 1310 1438 1557 1558 1906 1969 2205 2354 2717 3040 3175 3622 4077 3909 3827 3870 3929 3883 3503 2951 2241 1426 821 621 694 776 783 835 1063 1098 1009 1983 1291 1276 1880 1361
0 0 0 0 0 0 0 0 0 0 0 386 1118 1433 1564 1917 1942 2326 2013 2630 3225 3169 3364 3577 3731 3991 4149 3565 2992 2918 2373 1693 840 455 378 443 527 641 607 941 1122 692 840 963 1402 1558 1204 1366 1896
0 0 0 0 20 0 0 0 0 0 0 83 617 1483 1998 2201 2339 2591 1994 2897 3124 3096 3281 3328 3329 3269 2875 2546 2388 1811 966 395 166 260 292 323 290 229 177 397 777 740 865 1138 1026 917 651 748 1163
CIN
-433 -193 -210 -209 -10 0 0 0 -14 0 -26 0 0 0 -3 -5 0 -1 -1 0 0 0 0 0 0 0 0 0 0 0 0 0 0 0 0 0 0 0 0 0 0 0 0 0 0 0 0 0 0
-236 -233 -244 -80 -8 0 -7 -9 -12 -16 0 -26 -23 -5 -7 -6 -29 -4 0 0 0 0 -7 0 -1 0 0 0 0 0 0 0 0 0 0 0 0 0 0 0 0 0 0 0 -5 -10 0 0 0
-245 -281 -84 -2 0 0 0 -11 -18 -52 -92 -124 -24 -18 -19 -23 -1 0 0 0 0 0 -2 0 0 0 -1 -1 0 0 0 0 0 0 0 0 0 0 0 0 0 0 0 -1 -10 0 -13 0 0
-216 -177 -57 -1 0 -2 -3 -12 -30 -24 -99 -47 -31 -30 -15 -3 0 0 0 0 0 0 -3 -1 -1 -2 -1 0 0 0 0 0 0 0 0 0 0 0 0 0 0 0 0 0 0 0 -2 0 0
-172 -52 0 0 0 -2 -8 -26 -28 -41 -81 -65 -26 -24 -4 0 0 0 0 0 0 0 -3 -6 -3 -2 -1 -1 0 0 0 0 0 0 0 0 0 0 0 0 0 0 0 0 0 0 -1 -4 -7
-40 -42 0 -2 -13 0 -6 -16 -27 -65 -109 -76 -40 -33 -1 0 0 0 0 0 0 0 -6 -11 -4 -8 0 -1 -1 0 0 -1 0 0 0 0 0 0 0 0 0 0 0 0 0 0 -3 -7 -7
-13 0 -1 0 0 -1 -7 -16 -13 -28 -25 -109 -87 -37 -17 0 0 0 -1 0 0 0 0 0 0 0 -10 -18 -3 -2 0 0 0 0 0 0 0 0 -2 0 0 0 -3 0 0 0 -13 -4 -11
-27 0 -8 -26 -23 -4 -8 -11 -15 -11 -80 -114 -107 -63 -33 -1 0 0 0 0 0 -48 -7 -2 0 0 -7 -4 0 -5 0 0 -1 -2 -3 -4 0 0 -4 -4 0 0 0 0 -1 -5 -7 -12 -21
-44 -32 0 -87 -96 -29 -12 -6 -33 -53 -62 -93 -133 -87 -68 -47 -1 0 0 0 0 0 -27 -10 0 -2 -11 -5 -11 -3 -3 -5 -2 0 -3 -12 -1 -2 -2 -15 -3 0 0 0 -1 -8 -23 -35 -38
-117 0 0 0 0 -39 -13 -5 -19 -22 -46 -100 -134 -141 -125 -90 -13 0 0 0 0 0 -1 -47 -3 -6 0 -8 -6 -4 -18 -58 -20 -1 -4 -1 0 0 -1 -4 -4 -3 -3 -7 -4 -8 -15 -57 0
0 0 0 0 0 -30 -18 -7 -10 -6 -11 -62 -131 -171 -155 -120 -33 -3 0 0 0 0 0 -1 0 -3 0 -1 -6 0 -4 -1 -36 0 0 -1 -1 -1 0 0 -1 0 -11 0 -6 -13 -4 -2 0
0 0 0 0 0 -18 -18 -7 -8 -14 -22 -55 -144 -167 -159 -151 -77 -29 0 0 0 0 0 0 0 0 0 0 -1 -6 -4 -18 -8 -8 0 0 0 -1 0 -4 0 0 0 0 0 0 -1 -1 -8
0 0 0 0 0 -8 -18 -6 -12 -22 -46 -108 -153 -169 -143 -149 -134 -100 -27 -1 0 0 0 0 0 0 0 0 0 0 -1 0 0 0 0 0 0 0 0 0 -1 0 0 0 0 0 0 -1 -1
0 0 0 0 0 -14 -54 -16 -5 -35 -64 -109 -148 -142 -129 -138 -137 -119 -104 -40 -12 -6 0 0 0 0 0 0 0 0 -1 -1 0 -3 -16 -4 0 0 0 0 -1 -1 0 0 0 0 0 0 -7
0 0 0 0 0 0 -16 -9 -3 -42 -52 -99 -121 -122 -112 -126 -120 -97 -99 -64 -28 -13 -11 -9 -3 0 0 0 0 0 -3 -5 -2 -4 -9 -1 0 0 0 -4 -16 0 0 -2 0 0 0 0 0
0 0 0 0 0 0 -3 -3 -30 -39 -42 -60 -96 -108 -108 -101 -103 -83 -61 -51 -33 -18 -17 -7 -14 -8 -2 0 -1 0 0 0 0 -1 -3 -6 -8 -9 -3 -8 -21 -20 -6 0 -4 -3 -5 -1 0
0 0 0 0 0 0 0 -2 -41 -40 -34 -43 -69 -81 -90 -81 -72 -56 -50 -44 -30 -30 -32 -23 -11 -12 -7 -4 0 -1 -1 -2 -3 -4 -2 -1 0 0 -1 0 0 0 0 0 0 0 0 0 0
0 0 0 0 0 0 0 -8 -34 -42 -25 -30 -40 -57 -66 -56 -56 -44 -29 -17 -16 -31 -35 -34 -26 -17 -11 -6 -6 -8 -9 -6 -3 -1 -2 -7 -3 -3 0 0 0 0 0 -1 -3 0 0 0 -8
0 0 0 0 0 0 0 -3 -16 -34 -23 -24 -23 -36 -36 -39 -49 -58 -53 -38 -19 -21 -35 -45 -48 -36 -24 -25 -26 -21 -10 0 0 0 -4 -4 -7 -5 0 0 0 0 0 0 0 0 0 0 0
0 0 0 0 0 0 0 0 -20 -29 -19 -18 -24 -25 -16 -23 -42 -52 -59 -56 -40 -23 -35 -44 -55 -57 -52 -44 -47 -30 -20 -5 -1 0 0 -5 -3 0 0 0 0 0 0 0 0 0 0 0 0
0 0 0 0 0 0 0 -6 -22 -26 -32 -26 -26 -24 -24 -11 -23 -40 -55 -57 -41 -35 -36 -48 -58 -66 -66 -65 -48 -40 -33 -25 -15 -3 0 0 -1 -5 -1 -1 0 0 0 -1 -1 0 0 0 0
0 0 0 0 0 0 0 0 -1 -9 -19 -28 -26 -26 -26 -20 -14 -31 -47 -39 -43 -33 -35 -41 -49 -59 -56 -40 -24 -11 -2 -2 0 -1 0 -26 -1 0 -1 -1 0 0 0 -1 0 0 0 0 0
0 0 0 0 0 0 0 0 0 -17 -14 -7 -24 -15 -20 -26 -17 -16 -27 -34 -29 -30 -28 -38 -49 -29 -25 -26 -23 -15 -8 0 0 -6 -1 0 0 0 0 -1 0 0 0 0 0 0 0 0 0
0 0 0 0 0 0 0 0 0 -1 -9 0 -12 -19 -19 -25 -13 -13 -21 -35 -33 -39 -45 -62 -72 -51 -37 -35 -31 -26 -20 -3 0 0 0 0 0 0 0 0 0 0 0 0 0 0 0 0 0
0 0 0 0 0 0 0 0 0 0 -25 -44 -5 -11 -14 -23 -23 -23 -23 -29 -42 -46 -57 -60 -74 -58 -53 -52 -44 -32 -17 -5 0 0 0 0 0 0 -1 0 0 0 0 0 0 0 0 0 0
0 0 0 0 0 0 0 0 0 -74 -57 -65 -45 -18 -9 -14 -19 -18 -16 -18 -25 -29 -48 -52 -53 -52 -47 -43 -31 -15 -8 -3 -4 0 0 0 0 0 0 0 0 0 0 0 0 0 0 0 0
0 0 0 0 0 0 0 0 0 -53 -26 -65 -47 -23 -24 -15 -9 -16 -10 -17 -16 -19 -32 -30 -31 -34 -31 -24 -19 -10 -2 -2 -2 0 -1 -1 -9 -2 -3 -1 0 0 0 0 0 0 0 0 0
0 0 0 0 0 0 0 0 0 0 -29 -27 -36 -25 -22 -10 -7 -10 -12 -15 -14 -16 -26 -27 -26 -25 -18 -16 -10 -1 -2 -7 -23 -35 -30 -38 -46 -43 -33 -22 -6 0 0 0 0 0 0 0 0
0 0 0 0 0 0 0 0 0 0 0 -8 -17 -18 -19 -15 -8 -9 -10 -22 -29 -28 -31 -23 -16 -10 -8 -19 -23 -22 -23 -41 -49 -59 -58 -60 -63 -50 -36 -11 -1 0 0 0 0 0 0 0 0
0 0 0 0 -2 0 0 0 0 0 0 -14 -4 -18 -18 -7 -6 -11 -20 -27 -44 -44 -37 -25 -20 -27 -37 -45 -52 -45 -63 -71 -100 -78 -83 -82 -82 -94 -114 -35 -3 -1 0 0 0 0 0 0 0
Wind_Speed
25 27 18 22 28 nan nan nan nan nan nan 8 13 18 11 18 18 10 4 4 3 7 9 10 13 12 21 15 18 16 17 15 14 14 14 15 14 13 11 10 9 8 7 6 7 7 7 4 2
21 19 19 22 21 nan nan nan 10 nan nan nan nan 5 10 8 9 1 2 2 1 5 5 7 11 12 12 20 20 18 18 16 16 17 16 17 17 15 13 13 11 10 7 5 4 4 6 8 7
20 22 23 26 nan nan nan 11 10 nan nan nan 13 11 11 6 3 7 2 3 2 5 4 6 10 11 10 17 19 22 18 14 16 19 21 20 20 18 16 15 14 12 9 6 3 3 5 4 5
20 23 28 14 nan 11 11 11 nan nan nan 12 11 5 6 10 9 1 2 3 2 13 8 7 11 15 13 21 19 20 22 22 17 14 19 20 19 18 20 18 17 15 11 7 5 5 6 7 7
24 21 18 nan nan 12 15 10 12 nan 11 9 13 9 9 6 3 5 4 3 7 8 5 13 7 17 19 25 20 17 23 25 23 20 23 22 22 20 19 19 19 17 14 12 8 6 6 7 7
21 20 13 nan nan 14 14 15 8 nan nan 12 9 11 8 13 9 5 2 2 8 5 10 13 17 15 17 21 18 13 20 22 22 23 22 22 22 22 21 20 20 18 16 13 10 8 8 8 10
17 17 13 13 11 7 11 16 8 6 nan nan 15 9 14 17 12 9 6 2 6 12 12 14 10 11 18 18 23 9 13 21 23 21 23 23 24 22 19 21 22 21 18 16 14 12 10 11 11
15 16 nan nan 10 6 12 15 11 7 5 9 15 15 19 19 16 14 6 3 5 8 9 6 11 16 9 12 6 10 17 23 22 22 22 23 22 20 19 15 22 22 20 16 16 13 12 12 13
17 nan nan nan nan 10 14 14 11 8 10 5 10 11 20 22 21 17 13 8 7 9 8 15 12 11 5 8 6 10 18 18 16 23 25 21 22 20 12 25 19 19 19 18 17 16 15 12 8
nan nan nan nan nan nan 15 15 12 14 11 8 9 15 20 22 23 19 19 16 12 10 8 nan 7 7 4 4 1 1 3 9 18 16 25 30 29 26 25 20 18 15 16 15 15 15 14 11 9
nan nan nan nan nan nan 12 10 11 13 13 13 18 20 24 25 24 22 20 17 13 8 7 11 6 8 8 5 1 2 7 5 5 5 14 29 31 20 18 20 16 18 14 14 10 10 10 16 15
nan nan nan nan nan nan 13 4 7 10 6 11 17 19 20 24 24 23 22 18 17 15 10 9 3 3 2 1 5 4 4 7 2 2 13 28 24 19 19 19 21 16 17 19 20 19 22 17 14
nan nan nan nan nan nan 13 8 5 3 3 14 19 20 19 20 22 22 21 20 16 13 11 9 6 1 2 7 6 10 12 6 8 3 10 13 13 17 19 21 22 17 19 20 16 17 18 16 12
nan nan nan nan nan nan nan 9 10 5 9 14 18 20 18 18 19 19 22 23 19 16 13 12 14 14 11 13 15 17 15 14 12 10 7 6 6 6 9 11 19 23 22 21 21 20 19 17 15
nan nan nan nan nan nan nan 15 9 9 12 17 17 17 17 17 17 18 20 21 22 17 17 17 17 17 16 14 13 11 12 13 11 11 11 11 8 6 6 10 10 11 18 19 23 21 16 15 15
nan nan nan nan nan nan nan nan 10 15 17 18 17 16 17 19 18 15 16 17 18 19 19 17 17 15 16 15 14 15 14 14 13 12 10 9 11 10 8 4 4 11 14 12 11 12 17 18 18
nan nan nan nan nan nan nan nan 10 17 19 20 18 16 18 18 17 16 16 17 17 18 19 20 17 15 14 13 12 12 12 12 12 12 11 10 10 10 9 9 8 9 6 10 6 4 5 7 17
nan nan nan nan nan nan nan 9 7 15 17 20 23 21 19 22 22 20 18 15 17 18 17 18 17 19 13 10 9 9 9 9 9 9 9 9 10 10 9 8 10 9 9 9 9 11 10 7 3
nan nan nan nan nan nan nan nan 5 9 12 17 20 23 23 23 22 22 19 17 16 16 17 17 16 15 12 12 12 12 10 7 4 3 4 4 6 9 9 9 9 9 9 9 10 10 10 9 10
nan nan nan nan nan nan nan nan 7 7 9 16 19 21 23 24 22 20 20 18 17 17 16 17 17 15 12 8 6 4 3 4 3 3 4 5 5 7 5 7 11 11 9 8 11 11 11 11 15
nan nan nan nan nan nan nan nan 7 5 5 9 14 17 18 22 24 22 20 19 18 17 17 16 17 16 16 12 10 11 10 9 9 7 7 10 10 7 10 12 13 12 13 11 14 14 13 14 18
nan nan nan nan nan nan nan nan nan nan 7 8 13 16 18 18 20 23 22 21 19 18 19 19 19 19 17 15 11 12 10 10 8 11 10 8 11 11 8 12 13 13 11 11 11 14 16 17 16
nan nan nan nan nan nan nan nan nan nan nan 8 11 17 19 21 21 22 21 20 21 20 17 15 17 18 17 18 17 17 16 13 15 17 12 11 12 11 12 13 13 15 18 17 14 14 14 17 19
nan nan nan nan nan nan nan nan nan nan nan nan nan 14 18 20 21 23 22 18 18 20 21 23 22 21 24 23 23 20 16 15 15 17 16 17 18 18 18 16 16 16 18 19 20 20 19 20 20
nan nan nan nan nan nan nan nan nan nan nan nan 4 15 19 20 22 25 29 22 18 17 15 17 19 23 26 26 23 24 25 25 23 21 21 21 20 22 25 26 24 22 23 25 27 26 23 25 28
nan nan nan nan nan nan nan nan nan nan 8 5 3 9 22 21 24 28 31 27 24 24 24 21 22 20 23 25 25 23 23 23 28 28 27 27 27 26 28 26 25 27 28 26 28 31 30 27 28
nan nan nan nan nan nan nan nan nan nan 14 12 11 12 19 22 24 28 30 29 27 29 31 30 30 28 27 27 28 29 27 24 22 24 26 28 32 31 29 30 29 30 32 32 34 36 34 34 36
nan nan nan nan nan nan nan nan nan nan nan 14 11 14 18 21 24 29 29 27 25 28 32 32 33 31 32 31 32 32 31 31 29 30 30 31 32 34 32 31 31 31 34 36 39 38 39 40 38
nan nan nan nan nan nan nan nan nan nan nan 12 11 13 18 19 21 26 28 28 27 31 32 31 32 33 34 36 37 36 39 37 34 33 30 31 32 32 33 34 35 34 34 37 41 41 39 38 39
nan nan nan nan nan nan nan nan nan nan nan nan 11 14 14 15 19 21 22 29 29 32 35 37 38 40 40 42 42 42 39 38 36 35 34 35 35 36 38 39 40 41 42 44 43 40 41 39 38
Wind_Direction
60 61 71 71 72 nan nan nan nan nan nan 122 150 164 196 172 149 159 165 179 241 276 296 291 309 275 283 245 252 235 208 209 206 194 186 188 191 198 189 181 183 189 176 189 200 178 162 175 184
57 63 68 86 82 nan nan nan 101 nan nan nan nan 112 163 199 169 214 176 169 212 262 219 268 297 295 283 269 233 228 207 205 199 198 192 192 190 199 194 193 186 207 174 190 205 203 185 180 186
64 75 87 73 nan nan nan 102 75 nan nan nan 75 140 132 115 133 134 235 263 34 267 250 10 292 301 268 227 234 203 203 207 205 201 202 203 196 200 195 200 196 204 185 178 224 214 217 200 189
67 65 69 86 nan 79 91 85 nan nan nan 74 53 66 72 144 117 96 237 272 276 238 168 283 299 297 299 253 213 206 209 200 195 213 218 209 205 201 200 199 197 200 198 182 216 208 203 192 191
76 78 54 nan nan 71 70 67 80 nan 46 44 56 40 67 118 317 15 342 353 255 259 119 260 260 282 275 241 217 222 222 205 201 197 214 210 208 207 209 202 203 199 201 197 207 214 193 180 177
77 79 100 nan nan 60 59 53 35 nan nan 1 15 46 66 48 13 21 353 110 267 268 247 242 239 273 283 219 231 244 223 220 207 212 212 210 207 204 207 206 206 204 197 199 201 210 187 175 165
95 84 99 96 61 59 64 66 62 27 nan nan 31 42 52 36 20 5 1 261 261 253 260 265 304 251 281 251 225 275 243 219 207 213 211 208 204 207 204 205 210 204 206 190 200 198 192 182 168
89 80 nan nan 92 82 60 71 69 75 355 23 47 29 38 18 21 13 12 285 298 269 248 263 272 271 319 292 250 291 244 218 210 208 214 210 204 204 205 209 212 207 212 197 197 196 196 186 167
64 nan nan nan nan 91 49 57 79 56 9 80 61 9 357 13 22 21 19 352 318 314 252 228 248 250 233 272 354 0 285 230 226 210 211 209 202 197 208 217 211 215 208 204 201 195 189 183 158
nan nan nan nan nan nan 71 70 39 42 20 356 345 346 1 14 18 17 15 3 344 310 248 nan 205 211 236 227 287 115 155 271 272 235 223 197 198 200 201 222 222 222 215 210 210 206 190 168 175
nan nan nan nan nan nan 76 64 70 47 47 27 359 7 15 21 22 20 15 14 20 14 12 355 15 335 35 287 182 48 103 122 240 296 239 212 194 209 207 207 213 211 232 207 224 233 202 205 187
nan nan nan nan nan nan 83 74 75 139 103 360 1 3 17 23 26 21 19 21 28 37 24 21 8 356 131 29 40 138 146 117 87 226 219 203 192 213 212 213 210 211 212 218 206 207 212 200 198
nan nan nan nan nan nan 71 86 78 164 337 347 351 5 14 24 25 26 22 23 27 39 40 45 30 14 88 95 83 87 91 135 135 143 216 217 220 216 221 228 229 216 215 216 224 222 217 214 212
nan nan nan nan nan nan nan 52 80 81 355 358 5 7 11 15 22 22 26 25 24 29 42 44 46 54 94 109 110 109 109 101 114 109 143 148 145 186 201 215 233 225 229 224 221 220 221 226 219
nan nan nan nan nan nan nan 43 94 36 11 8 15 13 7 11 16 24 25 25 28 27 28 42 57 64 79 91 101 103 103 111 119 123 124 122 117 130 193 208 220 224 251 251 242 222 222 231 228
nan nan nan nan nan nan nan nan 44 30 17 15 20 20 15 13 12 17 21 27 22 27 29 32 47 56 68 78 90 99 102 100 103 110 118 109 94 84 74 94 250 246 255 263 298 287 265 224 227
nan nan nan nan nan nan nan nan 23 31 23 15 20 21 18 14 17 13 14 19 21 31 27 34 41 47 59 73 84 78 79 80 85 85 86 81 84 87 80 68 50 42 344 292 284 284 320 293 234
nan nan nan nan nan nan nan 229 19 21 19 11 20 22 25 23 21 13 17 22 19 21 29 33 39 44 41 53 57 72 69 67 71 67 61 60 45 40 44 63 49 26 26 19 1 355 346 341 285
nan nan nan nan nan nan nan nan 328 16 10 5 12 14 19 21 19 16 19 21 27 24 24 28 29 35 36 33 42 41 38 20 19 11 36 44 24 21 12 16 10 355 354 351 348 349 349 328 327
nan nan nan nan nan nan nan nan 263 336 10 356 6 10 12 5 10 20 21 27 28 24 26 23 25 18 19 17 8 16 345 1 359 311 305 340 352 347 343 350 340 334 308 326 330 329 329 323 312
nan nan nan nan nan nan nan nan 243 299 342 345 353 359 9 1 358 4 15 26 29 32 31 30 24 14 7 14 343 339 348 350 354 354 351 351 346 338 327 330 328 335 320 310 312 310 319 300 305
nan nan nan nan nan nan nan nan nan nan 328 344 336 340 342 356 357 352 355 5 21 32 30 26 16 12 9 2 352 350 344 324 318 311 318 298 286 278 322 307 310 325 316 309 306 288 295 292 297
nan nan nan nan nan nan nan nan nan nan nan 352 347 332 330 330 340 352 348 346 0 8 11 13 15 4 359 350 2 351 350 333 319 315 324 312 317 322 297 294 303 306 308 307 312 305 306 298 292
nan nan nan nan nan nan nan nan nan nan nan nan nan 314 312 318 324 336 340 335 348 355 353 341 340 343 342 346 346 346 342 328 316 310 299 301 297 297 295 297 298 299 299 300 298 299 306 297 291
nan nan nan nan nan nan nan nan nan nan nan nan 191 309 306 307 314 328 332 334 336 339 334 329 330 329 329 330 326 328 329 325 322 315 305 290 296 288 292 296 299 294 291 293 293 292 289 289 293
nan nan nan nan nan nan nan nan nan nan 211 227 285 323 320 326 320 322 325 331 330 329 327 328 323 319 312 310 310 310 314 310 309 308 296 292 283 281 274 283 288 295 296 291 288 291 294 295 293
nan nan nan nan nan nan nan nan nan nan 243 251 301 318 306 312 316 314 319 325 322 324 326 327 322 319 314 310 306 309 309 306 287 277 275 276 275 274 270 272 280 287 289 289 288 292 293 294 295
nan nan nan nan nan nan nan nan nan nan nan 252 267 292 301 304 306 305 303 307 315 315 315 317 315 314 310 308 307 308 306 300 291 287 280 274 271 268 270 272 275 280 284 286 287 288 290 292 294
nan nan nan nan nan nan nan nan nan nan nan 246 260 280 287 290 287 285 293 299 303 303 305 309 310 308 307 309 307 306 305 301 296 291 284 283 280 280 281 283 285 285 282 283 284 285 285 288 286
nan nan nan nan nan nan nan nan nan nan nan nan 272 289 295 290 281 282 291 289 296 304 310 313 313 312 310 305 305 307 303 299 295 290 286 282 280 279 278 277 278 283 288 292 292 285 281 281 283